Terminal Aerodrome Forecast
Issued by NWS Atlanta, GA

Home | Current Version | Previous Version | Text Only | Print | Product List | Glossary On
Versions: 1 2 3 4 5 6 7 8 9 10 11 12 13 14 15 16 17 18 19 20 21 22 23 24 25 26 27 28 29 30 31 32
000
FTAK31 PAJN 191700
TAFAHN
TAF
PAHN 191731Z 1918/2018 30010KT P6SM -SN OVC045
      TEMPO 1918/1920 4SM -SN BR BKN030 OVC040
     FM192000 30010KT P6SM BKN070
     FM200300 30012KT P6SM VCSH BKN060
     FM200900 30012KT P6SM -SN SCT040 OVC060
      AMD LTD TO CLD VIS AND WIND=

USA.gov is the U.S. government's official web portal to all federal, state and local government web resources and services.